| time (UTC) | temp C | wind direction | speed KPH | gust KPH | rain 1hr cm | rain 24hr cm | rain mn cm | humidity % | barometer mb |
| 20260509104900 | 11 | 8 | 3.2 | 8.0 | 0.05 | 0.53 | 0.18 | 91 | 1019.7 |
| 20260509104400 | 11 | 19 | 3.2 | 8.0 | 0.13 | 0.53 | 0.18 | 91 | 1019.8 |
| 20260509103900 | 11 | 64 | 3.2 | 9.7 | 0.15 | 0.53 | 0.18 | 91 | 1019.9 |
| 20260509103401 | 10 | 15 | 1.6 | 4.8 | 0.15 | 0.53 | 0.18 | 91 | 1019.9 |
| 20260509102900 | 10 | 48 | 1.6 | 4.8 | 0.15 | 0.53 | 0.18 | 91 | 1019.9 |
| 20260509102400 | 10 | 12 | 1.6 | 4.8 | 0.15 | 0.53 | 0.18 | 90 | 1020.0 |
| 20260509101900 | 10 | 348 | 1.6 | 4.8 | 0.15 | 0.53 | 0.18 | 90 | 1020.0 |
| 20260509095900 | 11 | 20 | 3.2 | 8.0 | 0.13 | 0.51 | 0.15 | 88 | 1019.9 |
| 20260509095400 | 11 | 23 | 3.2 | 4.8 | 0.10 | 0.51 | 0.15 | 88 | 1019.8 |
| 20260509094859 | 11 | 9 | 3.2 | 4.8 | 0.08 | 0.48 | 0.13 | 87 | 1019.8 |
| 20260509094359 | 11 | 9 | 3.2 | 4.8 | 0.03 | 0.43 | 0.05 | 85 | 1019.8 |
| 20260509093900 | 11 | 18 | 3.2 | 11.3 | 0.00 | 0.41 | 0.05 | 84 | 1019.7 |
| 20260509093359 | 11 | 13 | 3.2 | 8.0 | 0.00 | 0.41 | 0.05 | 84 | 1019.6 |
| 20260509092900 | 11 | 21 | 3.2 | 9.7 | 0.00 | 0.41 | 0.05 | 84 | 1019.5 |
| 20260509092400 | 11 | 34 | 3.2 | 11.3 | 0.00 | 0.41 | 0.05 | 84 | 1019.6 |
| 20260509091900 | 11 | 41 | 3.2 | 9.7 | 0.00 | 0.41 | 0.05 | 84 | 1019.5 |
| 20260509091400 | 11 | 4 | 6.4 | 11.3 | 0.00 | 0.41 | 0.05 | 85 | 1019.4 |
| 20260509090859 | 11 | 35 | 3.2 | 8.0 | 0.00 | 0.41 | 0.05 | 85 | 1019.5 |
| 20260509090400 | 11 | 37 | 3.2 | 9.7 | 0.00 | 0.41 | 0.05 | 85 | 1019.5 |
| 20260509085900 | 11 | 20 | 3.2 | 9.7 | 0.00 | 0.41 | 0.05 | 86 | 1019.5 |
| 20260509085401 | 11 | 23 | 3.2 | 11.3 | 0.00 | 0.41 | 0.05 | 86 | 1019.6 |
| 20260509084859 | 11 | 33 | 4.8 | 14.5 | 0.00 | 0.41 | 0.05 | 86 | 1019.5 |
| 20260509083900 | 11 | 4 | 3.2 | 8.0 | 0.00 | 0.41 | 0.05 | 87 | 1019.5 |
| 20260509083400 | 11 | 71 | 3.2 | 11.3 | 0.00 | 0.41 | 0.05 | 86 | 1019.5 |
| 20260509082900 | 11 | 344 | 3.2 | 11.3 | 0.00 | 0.41 | 0.05 | 87 | 1019.5 |
| 20260509082359 | 11 | 17 | 8.0 | 12.9 | 0.00 | 0.41 | 0.05 | 88 | 1019.5 |
| 20260509081901 | 11 | 37 | 3.2 | 4.8 | 0.00 | 0.41 | 0.05 | 89 | 1019.5 |
| 20260509081400 | 11 | 305 | 1.6 | 4.8 | 0.00 | 0.41 | 0.05 | 90 | 1019.4 |
| 20260509080859 | 10 | 202 | 4.8 | 4.8 | 0.00 | 0.41 | 0.05 | 90 | 1019.4 |
| 20260509080359 | 10 | 126 | 3.2 | 8.0 | 0.00 | 0.41 | 0.05 | 91 | 1019.5 |
| 20260509075359 | 10 | 202 | 1.6 | 3.2 | 0.00 | 0.41 | 0.05 | 93 | 1019.3 |
| 20260509074900 | 10 | 202 | 1.6 | 3.2 | 0.00 | 0.41 | 0.05 | 93 | 1019.4 |
| 20260509074359 | 10 | 202 | 1.6 | 4.8 | 0.00 | 0.41 | 0.05 | 93 | 1019.4 |
| 20260509073859 | 10 | 202 | 1.6 | 3.2 | 0.00 | 0.41 | 0.05 | 93 | 1019.4 |
| 20260509073359 | 9 | 202 | 1.6 | 3.2 | 0.00 | 0.41 | 0.05 | 93 | 1019.4 |
| 20260509072859 | 9 | 202 | 1.6 | 3.2 | 0.03 | 0.41 | 0.05 | 93 | 1019.3 |
| 20260509071859 | 9 | 263 | 0.0 | 3.2 | 0.03 | 0.41 | 0.05 | 93 | 1019.2 |
| 20260509070900 | 9 | 263 | 0.0 | 3.2 | 0.05 | 0.41 | 0.05 | 93 | 1019.2 |
| 20260509070359 | 9 | 107 | 0.0 | 3.2 | 0.05 | 0.41 | 0.05 | 93 | 1019.1 |
| 20260509065900 | 9 | 107 | 1.6 | 3.2 | 0.05 | 0.41 | 0.05 | 93 | 1019.1 |
| 20260509065400 | 9 | 107 | 0.0 | 3.2 | 0.05 | 0.41 | 0.05 | 93 | 1019.1 |
| 20260509064859 | 9 | 107 | 1.6 | 3.2 | 0.05 | 0.41 | 0.05 | 93 | 1019.1 |
| 20260509064400 | 9 | 107 | 1.6 | 3.2 | 0.05 | 0.41 | 0.05 | 93 | 1019.0 |
| 20260509063859 | 8 | 107 | 1.6 | 4.8 | 0.05 | 0.41 | 0.05 | 93 | 1018.9 |
| 20260509063359 | 9 | 107 | 1.6 | 4.8 | 0.05 | 0.41 | 0.05 | 93 | 1019.1 |
| 20260509062859 | 9 | 148 | 1.6 | 1.6 | 0.03 | 0.38 | 0.03 | 93 | 1019.0 |
| 20260509062359 | 8 | 148 | 0.0 | 3.2 | 0.03 | 0.38 | 0.03 | 92 | 1019.0 |
| 20260509061400 | 8 | 199 | 0.0 | 3.2 | 0.03 | 0.38 | 0.03 | 92 | 1019.1 |
| 20260509060859 | 8 | 199 | 1.6 | 4.8 | 0.00 | 0.36 | 0.00 | 92 | 1019.1 |
| 20260509060400 | 8 | 114 | 1.6 | 1.6 | 0.00 | 0.36 | 0.00 | 92 | 1019.1 |
| 20260509055900 | 8 | 112 | 0.0 | 3.2 | 0.00 | 0.36 | 0.00 | 92 | 1019.1 |
| 20260509055400 | 8 | 88 | 0.0 | 3.2 | 0.00 | 0.36 | 0.00 | 92 | 1019.2 |
| 20260509054900 | 8 | 88 | 0.0 | 3.2 | 0.00 | 0.36 | 0.00 | 92 | 1019.2 |
| 20260509054359 | 8 | 88 | 1.6 | 3.2 | 0.00 | 0.36 | 0.00 | 92 | 1019.2 |
| 20260509053400 | 8 | 88 | 0.0 | 3.2 | 0.00 | 0.36 | 0.00 | 91 | 1019.0 |
| 20260509052901 | 8 | 88 | 1.6 | 4.8 | 0.00 | 0.36 | 0.00 | 91 | 1019.0 |
| 20260509052401 | 8 | 102 | 1.6 | 3.2 | 0.00 | 0.36 | 0.00 | 91 | 1019.0 |
| 20260509050900 | 8 | 98 | 0.0 | 3.2 | 0.00 | 0.36 | 0.00 | 90 | 1018.9 |
| 20260509050359 | 8 | 98 | 1.6 | 4.8 | 0.00 | 0.36 | 0.00 | 90 | 1018.8 |
| 20260509045359 | 8 | 98 | 3.2 | 8.0 | 0.00 | 0.36 | 0.00 | 90 | 1018.8 |
| 20260509044859 | 8 | 106 | 1.6 | 4.8 | 0.00 | 0.36 | 0.00 | 90 | 1018.9 |
| 20260509044359 | 8 | 111 | 1.6 | 3.2 | 0.00 | 0.36 | 0.00 | 90 | 1018.9 |
| 20260509043900 | 8 | 95 | 3.2 | 4.8 | 0.00 | 0.36 | 0.00 | 90 | 1018.9 |
| 20260509043359 | 8 | 106 | 3.2 | 4.8 | 0.00 | 0.36 | 0.00 | 89 | 1018.9 |
| 20260509042900 | 8 | 138 | 3.2 | 4.8 | 0.00 | 0.36 | 0.00 | 89 | 1018.8 |
| 20260509041859 | 9 | 132 | 0.0 | 1.6 | 0.00 | 0.36 | 0.00 | 89 | 1018.7 |
| 20260509041359 | 9 | 132 | 1.6 | 3.2 | 0.00 | 0.36 | 0.00 | 89 | 1018.8 |
| 20260509040900 | 9 | 132 | 0.0 | 3.2 | 0.00 | 0.36 | 0.00 | 88 | 1018.7 |
| 20260509040359 | 9 | 132 | 0.0 | 3.2 | 0.00 | 0.36 | 0.00 | 88 | 1018.6 |
| 20260509035859 | 9 | 166 | 0.0 | 3.2 | 0.00 | 0.36 | 0.00 | 88 | 1018.6 |
| 20260509035359 | 9 | 166 | 0.0 | 4.8 | 0.00 | 0.36 | 0.00 | 88 | 1018.6 |
| 20260509034900 | 9 | 166 | 1.6 | 3.2 | 0.00 | 0.36 | 0.00 | 87 | 1018.5 |
| 20260509034359 | 9 | 20 | 1.6 | 4.8 | 0.00 | 0.36 | 0.00 | 87 | 1018.5 |
| 20260509033900 | 9 | 95 | 1.6 | 4.8 | 0.00 | 0.36 | 0.00 | 87 | 1018.5 |
| 20260509032359 | 9 | 108 | 1.6 | 8.0 | 0.00 | 0.36 | 0.00 | 86 | 1018.6 |
| 20260509031859 | 9 | 101 | 3.2 | 8.0 | 0.00 | 0.36 | 0.00 | 86 | 1018.5 |
| 20260509031359 | 9 | 159 | 1.6 | 3.2 | 0.00 | 0.36 | 0.00 | 86 | 1018.5 |
| 20260509030359 | 9 | 221 | 1.6 | 4.8 | 0.00 | 0.36 | 0.00 | 85 | 1018.6 |
| 20260509025859 | 9 | 183 | 3.2 | 4.8 | 0.00 | 0.36 | 0.00 | 85 | 1018.5 |
| 20260509025359 | 9 | 197 | 1.6 | 3.2 | 0.00 | 0.36 | 0.00 | 85 | 1018.4 |
| 20260509024859 | 9 | 42 | 1.6 | 4.8 | 0.00 | 0.36 | 0.00 | 85 | 1018.3 |
| 20260509024359 | 9 | 110 | 0.0 | 3.2 | 0.00 | 0.36 | 0.00 | 85 | 1018.4 |
| 20260509023359 | 9 | 110 | 1.6 | 4.8 | 0.00 | 0.36 | 0.00 | 85 | 1018.6 |
| 20260509021859 | 9 | 148 | 0.0 | 3.2 | 0.00 | 0.36 | 0.00 | 85 | 1018.5 |
| 20260509021358 | 9 | 148 | 1.6 | 4.8 | 0.00 | 0.36 | 0.00 | 85 | 1018.4 |
| 20260509020900 | 9 | 36 | 1.6 | 4.8 | 0.00 | 0.36 | 0.00 | 85 | 1018.4 |
| 20260509020359 | 9 | 36 | 1.6 | 4.8 | 0.00 | 0.36 | 0.00 | 85 | 1018.3 |
| 20260509015859 | 9 | 36 | 0.0 | 3.2 | 0.00 | 0.36 | 0.00 | 85 | 1018.4 |
| 20260509015359 | 9 | 36 | 0.0 | 0.0 | 0.00 | 0.36 | 0.00 | 85 | 1018.3 |
| 20260509014859 | 9 | 36 | 0.0 | 0.0 | 0.00 | 0.36 | 0.00 | 85 | 1018.4 |
| 20260509014359 | 9 | 36 | 0.0 | 1.6 | 0.00 | 0.36 | 0.00 | 85 | 1018.4 |
| 20260509012859 | 9 | 36 | 0.0 | 3.2 | 0.00 | 0.36 | 0.00 | 84 | 1018.5 |
| 20260509012359 | 9 | 36 | 0.0 | 3.2 | 0.00 | 0.36 | 0.00 | 84 | 1018.5 |
| 20260509011359 | 9 | 36 | 1.6 | 3.2 | 0.00 | 0.36 | 0.00 | 84 | 1018.4 |
| 20260509010859 | 9 | 36 | 1.6 | 3.2 | 0.00 | 0.36 | 0.00 | 84 | 1018.4 |
| 20260509010359 | 10 | 36 | 0.0 | 3.2 | 0.00 | 0.36 | 0.00 | 83 | 1018.5 |
| 20260509005859 | 10 | 36 | 0.0 | 0.0 | 0.00 | 0.36 | 0.00 | 83 | 1018.5 |
| 20260509005359 | 10 | 36 | 0.0 | 3.2 | 0.00 | 0.36 | 0.00 | 82 | 1018.5 |
| 20260509004900 | 10 | 36 | 0.0 | 3.2 | 0.00 | 0.36 | 0.00 | 82 | 1018.4 |
| 20260509004358 | 10 | 36 | 1.6 | 4.8 | 0.00 | 0.36 | 0.00 | 82 | 1018.5 |
| 20260509003859 | 10 | 36 | 1.6 | 3.2 | 0.00 | 0.36 | 0.00 | 81 | 1018.6 |
| 20260509003359 | 10 | 36 | 1.6 | 14.5 | 0.00 | 0.36 | 0.00 | 81 | 1018.6 |
| 20260509002859 | 10 | 36 | 0.0 | 3.2 | 0.00 | 0.36 | 0.00 | 81 | 1018.5 |
| 20260509002359 | 10 | 36 | 0.0 | 3.2 | 0.00 | 0.36 | 0.00 | 80 | 1018.5 |
| 20260509001859 | 10 | 36 | 0.0 | 3.2 | 0.00 | 0.36 | 0.00 | 80 | 1018.4 |
| 20260509001400 | 10 | 36 | 1.6 | 4.8 | 0.00 | 0.36 | 0.00 | 80 | 1018.4 |
| 20260509000859 | 10 | 36 | 0.0 | 3.2 | 0.00 | 0.36 | 0.00 | 81 | 1018.4 |
| 20260509000359 | 10 | 36 | 0.0 | 3.2 | 0.00 | 0.36 | 0.00 | 80 | 1018.4 |
| 20260508235859 | 10 | 329 | 0.0 | 4.8 | 0.00 | 0.36 | 0.00 | 80 | 1018.4 |
| 20260508235359 | 10 | 36 | 1.6 | 1.6 | 0.00 | 0.36 | 0.00 | 79 | 1018.5 |
| 20260508234359 | 10 | 6 | 3.2 | 4.8 | 0.00 | 0.36 | 0.00 | 79 | 1018.4 |
| 20260508233859 | 10 | 43 | 1.6 | 4.8 | 0.00 | 0.36 | 0.00 | 78 | 1018.4 |
| 20260508233359 | 10 | 328 | 3.2 | 8.0 | 0.00 | 0.36 | 0.00 | 78 | 1018.5 |
| 20260508232900 | 10 | 19 | 3.2 | 8.0 | 0.00 | 0.36 | 0.00 | 78 | 1018.4 |
| 20260508232359 | 10 | 80 | 1.6 | 4.8 | 0.00 | 0.36 | 0.00 | 76 | 1018.5 |
| 20260508231859 | 10 | 18 | 3.2 | 8.0 | 0.00 | 0.36 | 0.00 | 76 | 1018.4 |
| 20260508231359 | 10 | 65 | 3.2 | 9.7 | 0.00 | 0.36 | 0.00 | 76 | 1018.4 |
| 20260508230943 | 10 | 355 | 3.2 | 8.0 | 0.00 | 0.36 | 0.00 | 76 | 1018.4 |
| 20260508230359 | 10 | 26 | 1.6 | 3.2 | 0.00 | 0.36 | 0.00 | 76 | 1018.4 |
| 20260508225859 | 10 | 61 | 1.6 | 4.8 | 0.00 | 0.36 | 0.36 | 76 | 1018.5 |
| 20260508225359 | 10 | 110 | 1.6 | 4.8 | 0.00 | 0.36 | 0.36 | 77 | 1018.4 |
| 20260508224901 | 10 | 177 | 1.6 | 4.8 | 0.00 | 0.36 | 0.36 | 77 | 1018.3 |
| 20260508223859 | 10 | 18 | 1.6 | 8.0 | 0.00 | 0.36 | 0.36 | 77 | 1018.3 |
| 20260508223359 | 10 | 29 | 3.2 | 11.3 | 0.00 | 0.36 | 0.36 | 77 | 1018.3 |
| 20260508222859 | 10 | 24 | 1.6 | 9.7 | 0.00 | 0.36 | 0.36 | 76 | 1018.3 |
| 20260508222359 | 10 | 0 | 4.8 | 14.5 | 0.00 | 0.36 | 0.36 | 77 | 1018.3 |
| 20260508221859 | 10 | 19 | 3.2 | 4.8 | 0.00 | 0.36 | 0.36 | 78 | 1018.3 |
| 20260508215859 | 10 | 16 | 3.2 | 8.0 | 0.00 | 0.36 | 0.36 | 79 | 1018.3 |
| 20260508215359 | 10 | 5 | 3.2 | 9.7 | 0.00 | 0.36 | 0.36 | 79 | 1018.3 |
| 20260508214359 | 11 | 8 | 4.8 | 11.3 | 0.00 | 0.36 | 0.36 | 79 | 1018.2 |
| 20260508213859 | 11 | 5 | 3.2 | 11.3 | 0.00 | 0.36 | 0.36 | 78 | 1018.2 |
| 20260508213359 | 11 | 4 | 4.8 | 11.3 | 0.00 | 0.36 | 0.36 | 78 | 1018.2 |
| 20260508212859 | 11 | 348 | 4.8 | 11.3 | 0.00 | 0.36 | 0.36 | 79 | 1018.0 |
| 20260508212359 | 11 | 9 | 6.4 | 9.7 | 0.00 | 0.36 | 0.36 | 79 | 1018.0 |
| 20260508210359 | 11 | 4 | 4.8 | 11.3 | 0.00 | 0.36 | 0.36 | 79 | 1017.9 |
| 20260508205859 | 11 | 358 | 4.8 | 12.9 | 0.00 | 0.36 | 0.36 | 79 | 1017.9 |
| 20260508205358 | 11 | 0 | 4.8 | 11.3 | 0.00 | 0.36 | 0.36 | 79 | 1017.8 |
| 20260508204859 | 11 | 4 | 4.8 | 12.9 | 0.00 | 0.36 | 0.36 | 79 | 1017.8 |
| 20260508204359 | 11 | 4 | 4.8 | 11.3 | 0.00 | 0.36 | 0.36 | 80 | 1017.8 |
| 20260508203859 | 11 | 8 | 4.8 | 8.0 | 0.00 | 0.36 | 0.36 | 80 | 1017.7 |
| 20260508202900 | 11 | 8 | 4.8 | 11.3 | 0.00 | 0.36 | 0.36 | 80 | 1017.7 |
| 20260508202359 | 11 | 354 | 4.8 | 11.3 | 0.00 | 0.36 | 0.36 | 80 | 1017.7 |
| 20260508201859 | 11 | 10 | 3.2 | 8.0 | 0.00 | 0.36 | 0.36 | 80 | 1017.6 |
| 20260508201359 | 11 | 10 | 4.8 | 14.5 | 0.00 | 0.36 | 0.36 | 80 | 1017.6 |
| 20260508200859 | 11 | 16 | 4.8 | 12.9 | 0.00 | 0.36 | 0.36 | 81 | 1017.5 |
| 20260508200359 | 11 | 16 | 4.8 | 9.7 | 0.00 | 0.36 | 0.36 | 81 | 1017.4 |
| 20260508195859 | 11 | 344 | 3.2 | 9.7 | 0.00 | 0.36 | 0.36 | 81 | 1017.4 |
| 20260508195359 | 11 | 348 | 3.2 | 11.3 | 0.00 | 0.36 | 0.36 | 81 | 1017.3 |
| 20260508194859 | 11 | 1 | 4.8 | 9.7 | 0.00 | 0.36 | 0.36 | 80 | 1017.2 |
| 20260508194400 | 12 | 12 | 3.2 | 9.7 | 0.00 | 0.36 | 0.36 | 80 | 1017.2 |
| 20260508193859 | 12 | 3 | 4.8 | 12.9 | 0.00 | 0.36 | 0.36 | 79 | 1017.2 |
| 20260508193358 | 12 | 4 | 4.8 | 12.9 | 0.00 | 0.36 | 0.36 | 79 | 1017.1 |
| 20260508192859 | 12 | 11 | 3.2 | 9.7 | 0.00 | 0.36 | 0.36 | 80 | 1017.1 |
| 20260508192358 | 12 | 257 | 1.6 | 8.0 | 0.00 | 0.36 | 0.36 | 79 | 1017.1 |
| 20260508191859 | 12 | 99 | 1.6 | 4.8 | 0.00 | 0.36 | 0.36 | 79 | 1017.1 |
| 20260508190900 | 12 | 141 | 3.2 | 4.8 | 0.00 | 0.36 | 0.36 | 80 | 1016.9 |
| 20260508190359 | 12 | 126 | 1.6 | 4.8 | 0.00 | 0.36 | 0.36 | 80 | 1016.9 |
| 20260508185859 | 12 | 99 | 1.6 | 3.2 | 0.00 | 0.36 | 0.36 | 80 | 1016.9 |
| 20260508185358 | 12 | 92 | 1.6 | 8.0 | 0.00 | 0.36 | 0.36 | 79 | 1016.8 |
| 20260508184859 | 12 | 175 | 4.8 | 11.3 | 0.00 | 0.36 | 0.36 | 80 | 1016.8 |
| 20260508184359 | 12 | 145 | 1.6 | 4.8 | 0.00 | 0.36 | 0.36 | 80 | 1016.8 |
| 20260508183859 | 12 | 64 | 1.6 | 4.8 | 0.00 | 0.36 | 0.36 | 80 | 1016.6 |
| 20260508183359 | 12 | 355 | 3.2 | 8.0 | 0.00 | 0.36 | 0.36 | 81 | 1016.5 |
| 20260508182859 | 12 | 23 | 3.2 | 8.0 | 0.00 | 0.36 | 0.36 | 81 | 1016.4 |
| 20260508182359 | 12 | 358 | 3.2 | 8.0 | 0.00 | 0.36 | 0.36 | 80 | 1016.3 |
| 20260508181359 | 12 | 353 | 1.6 | 8.0 | 0.00 | 0.36 | 0.36 | 81 | 1016.3 |
| 20260508180859 | 12 | 355 | 4.8 | 8.0 | 0.00 | 0.36 | 0.36 | 81 | 1016.4 |
| 20260508175859 | 12 | 18 | 3.2 | 8.0 | 0.00 | 0.36 | 0.36 | 81 | 1016.4 |
| 20260508175359 | 13 | 351 | 4.8 | 9.7 | 0.00 | 0.36 | 0.36 | 81 | 1016.4 |
| 20260508174859 | 13 | 328 | 3.2 | 4.8 | 0.00 | 0.36 | 0.36 | 82 | 1016.3 |
| 20260508174359 | 13 | 351 | 1.6 | 4.8 | 0.00 | 0.36 | 0.36 | 82 | 1016.3 |
| 20260508173859 | 13 | 8 | 3.2 | 8.0 | 0.00 | 0.36 | 0.36 | 81 | 1016.2 |
| 20260508173359 | 13 | 14 | 4.8 | 8.0 | 0.00 | 0.36 | 0.36 | 81 | 1016.2 |
| 20260508172859 | 13 | 0 | 3.2 | 9.7 | 0.00 | 0.36 | 0.36 | 81 | 1016.1 |
| 20260508171359 | 13 | 47 | 3.2 | 4.8 | 0.00 | 0.36 | 0.36 | 80 | 1016.2 |
| 20260508170859 | 13 | 339 | 3.2 | 4.8 | 0.00 | 0.36 | 0.36 | 81 | 1016.1 |
| 20260508170359 | 13 | 10 | 1.6 | 9.7 | 0.00 | 0.36 | 0.36 | 81 | 1016.1 |
| 20260508165358 | 13 | 7 | 4.8 | 9.7 | 0.00 | 0.36 | 0.36 | 80 | 1016.0 |
| 20260508164900 | 13 | 353 | 3.2 | 8.0 | 0.00 | 0.36 | 0.36 | 81 | 1015.9 |
| 20260508164358 | 13 | 329 | 3.2 | 4.8 | 0.00 | 0.36 | 0.36 | 80 | 1016.0 |
| 20260508163859 | 13 | 7 | 4.8 | 8.0 | 0.00 | 0.36 | 0.36 | 80 | 1015.9 |
| 20260508162859 | 13 | 9 | 3.2 | 9.7 | 0.00 | 0.36 | 0.36 | 80 | 1015.9 |
| 20260508162359 | 13 | 356 | 3.2 | 9.7 | 0.00 | 0.36 | 0.36 | 80 | 1015.9 |
| 20260508161359 | 13 | 6 | 3.2 | 9.7 | 0.00 | 0.36 | 0.36 | 81 | 1015.9 |
| 20260508160859 | 13 | 348 | 4.8 | 11.3 | 0.00 | 0.36 | 0.36 | 82 | 1015.9 |
| 20260508160359 | 13 | 352 | 3.2 | 9.7 | 0.00 | 0.36 | 0.36 | 82 | 1015.9 |
| 20260508155858 | 13 | 347 | 3.2 | 4.8 | 0.05 | 0.36 | 0.36 | 82 | 1016.0 |
| 20260508154859 | 12 | 355 | 4.8 | 9.7 | 0.13 | 0.36 | 0.36 | 82 | 1016.0 |
| 20260508154359 | 12 | 345 | 1.6 | 4.8 | 0.13 | 0.36 | 0.36 | 82 | 1016.0 |
| 20260508153859 | 12 | 16 | 1.6 | 4.8 | 0.13 | 0.36 | 0.36 | 83 | 1016.0 |
| 20260508153358 | 12 | 353 | 1.6 | 4.8 | 0.13 | 0.36 | 0.36 | 83 | 1016.0 |
| 20260508152900 | 12 | 11 | 3.2 | 4.8 | 0.13 | 0.36 | 0.36 | 82 | 1016.0 |
| 20260508152359 | 12 | 349 | 3.2 | 4.8 | 0.13 | 0.36 | 0.36 | 82 | 1016.0 |
| 20260508151859 | 12 | 9 | 3.2 | 8.0 | 0.13 | 0.36 | 0.36 | 82 | 1016.0 |
| 20260508150900 | 13 | 26 | 1.6 | 4.8 | 0.13 | 0.36 | 0.36 | 80 | 1016.2 |
| 20260508150358 | 14 | 34 | 1.6 | 3.2 | 0.13 | 0.36 | 0.36 | 71 | 1016.2 |
| 20260508145858 | 14 | 173 | 0.0 | 3.2 | 0.05 | 0.30 | 0.30 | 70 | 1016.1 |
| 20260508144359 | 15 | 23 | 3.2 | 8.0 | 0.00 | 0.23 | 0.23 | 66 | 1015.9 |
| 20260508143859 | 15 | 131 | 1.6 | 3.2 | 0.00 | 0.23 | 0.23 | 68 | 1016.0 |
| 20260508143358 | 15 | 131 | 1.6 | 4.8 | 0.00 | 0.23 | 0.23 | 65 | 1016.0 |
| 20260508142859 | 15 | 102 | 1.6 | 4.8 | 0.00 | 0.23 | 0.23 | 66 | 1016.0 |
| 20260508142358 | 15 | 61 | 0.0 | 3.2 | 0.00 | 0.23 | 0.23 | 67 | 1016.0 |
| 20260508141859 | 15 | 61 | 0.0 | 3.2 | 0.00 | 0.23 | 0.23 | 69 | 1016.0 |
| 20260508141358 | 15 | 61 | 0.0 | 1.6 | 0.00 | 0.23 | 0.23 | 69 | 1016.1 |
| 20260508140859 | 15 | 61 | 0.0 | 1.6 | 0.00 | 0.23 | 0.23 | 67 | 1016.1 |
| 20260508140359 | 15 | 61 | 1.6 | 3.2 | 0.00 | 0.23 | 0.23 | 71 | 1016.1 |
| 20260508135859 | 14 | 72 | 0.0 | 4.8 | 0.00 | 0.23 | 0.23 | 68 | 1016.1 |
| 20260508135400 | 14 | 103 | 1.6 | 4.8 | 0.00 | 0.23 | 0.23 | 69 | 1016.2 |
| 20260508133859 | 14 | 134 | 0.0 | 1.6 | 0.00 | 0.23 | 0.23 | 71 | 1016.2 |
| 20260508133358 | 14 | 134 | 1.6 | 1.6 | 0.00 | 0.23 | 0.23 | 69 | 1016.3 |
| 20260508132358 | 14 | 134 | 1.6 | 4.8 | 0.00 | 0.23 | 0.23 | 66 | 1016.2 |
| 20260508131858 | 14 | 90 | 3.2 | 8.0 | 0.00 | 0.23 | 0.23 | 71 | 1016.2 |
| 20260508131400 | 14 | 71 | 4.8 | 8.0 | 0.00 | 0.23 | 0.23 | 71 | 1016.2 |
| 20260508130859 | 14 | 107 | 1.6 | 4.8 | 0.00 | 0.23 | 0.23 | 70 | 1016.3 |
| 20260508130358 | 14 | 92 | 1.6 | 4.8 | 0.00 | 0.23 | 0.23 | 73 | 1016.4 |
| 20260508125358 | 13 | 92 | 3.2 | 8.0 | 0.00 | 0.23 | 0.23 | 75 | 1016.4 |
| 20260508124858 | 13 | 96 | 1.6 | 3.2 | 0.00 | 0.23 | 0.23 | 76 | 1016.4 |
| 20260508124359 | 13 | 96 | 1.6 | 3.2 | 0.05 | 0.23 | 0.23 | 77 | 1016.4 |
| 20260508123858 | 13 | 97 | 0.0 | 3.2 | 0.05 | 0.23 | 0.23 | 82 | 1016.5 |
| 20260508123358 | 13 | 86 | 1.6 | 4.8 | 0.08 | 0.23 | 0.23 | 83 | 1016.4 |
| 20260508122859 | 12 | 86 | 1.6 | 4.8 | 0.08 | 0.23 | 0.23 | 82 | 1016.4 |
| 20260508122358 | 12 | 96 | 3.2 | 4.8 | 0.13 | 0.23 | 0.23 | 80 | 1016.5 |
| 20260508121859 | 12 | 107 | 1.6 | 4.8 | 0.20 | 0.23 | 0.23 | 82 | 1016.6 |
| 20260508121359 | 12 | 62 | 1.6 | 3.2 | 0.23 | 0.23 | 0.23 | 84 | 1016.5 |
| 20260508120358 | 12 | 57 | 1.6 | 4.8 | 0.23 | 0.23 | 0.23 | 86 | 1016.5 |
| 20260508115900 | 12 | 67 | 1.6 | 3.2 | 0.23 | 0.23 | 0.23 | 88 | 1016.5 |
| 20260508115400 | 12 | 350 | 1.6 | 3.2 | 0.23 | 0.23 | 0.23 | 89 | 1016.6 |
| 20260508114359 | 11 | 78 | 1.6 | 3.2 | 0.20 | 0.20 | 0.20 | 85 | 1016.7 |
| 20260508113859 | 11 | 92 | 1.6 | 4.8 | 0.18 | 0.18 | 0.18 | 83 | 1016.7 |
| 20260508112900 | 11 | 65 | 1.6 | 4.8 | 0.15 | 0.15 | 0.15 | 79 | 1016.7 |
| 20260508112358 | 12 | 240 | 3.2 | 8.0 | 0.13 | 0.13 | 0.13 | 78 | 1016.6 |
| 20260508111858 | 12 | 203 | 4.8 | 11.3 | 0.05 | 0.05 | 0.05 | 75 | 1016.5 |
| 20260508110858 | 13 | 23 | 0.0 | 3.2 | 0.00 | 0.00 | 0.00 | 75 | 1016.3 |
| 20260508110358 | 13 | 23 | 1.6 | 3.2 | 0.00 | 0.00 | 0.00 | 74 | 1016.3 |
| 20260508105859 | 13 | 23 | 1.6 | 4.8 | 0.00 | 0.00 | 0.00 | 73 | 1016.3 |